COSMOS 507

Satellite information

Favourite Embed

Satellite Type and Status

PAYLOADIN ORBIT

Key statistics

Satellite COSMOS 507 at a glance.

Uptime

19504

Days in orbit

Revolutions

≈ 12.5

Per day

Orbit

LEO

Low Earth Orbit

Inclination

74.0

Latest

Satellite identification and parameters

Extended collection of information and parameters for COSMOS 507.

Object identification

Identified? True

Debris? False

Object name: COSMOS 507

International designator: 1972-057D

Object number (NORAD): 6120

Object ID (CCSDS): 6120

Country: COMMONWEALTH OF INDEPENDENT STATES (CIS)

Current information (Y/N): Y

RCS size: MEDIUM

Orbital parameters

Period: 114.956 minutes

Inclination: 74.0277 deg

SMA: 7831.554 km

Apoapsis: 1495.583 km

Periapsis: 1411.256 km

RAAN: 97.4405 deg

Eccentricy: 0.00538378

Argument of periapsis: 169.9384 deg

Mean anomaly: 205.002 deg

Mean motion: 12.52653081 rev/day

Mean motion (dot): 0.00000006 rev/day2

B* drag term: 0.00014144995 1/REarth

Two-line elements (TLE)

Creation date: Dec. 12, 2025, 10:14 a.m.

Reference frame: TEME

Reference center: EARTH

Epoch: Dec. 12, 2025, 6:31 a.m. UTC

TLE line 0: 0 COSMOS 507

TLE line 1: 1 06120U 72057D 25346.27220073 .00000006 00000-0 14145-3 0 9997

TLE line 2: 2 06120 74.0277 97.4405 0053838 169.9384 205.0020 12.52653081441555

Live tracking on map

Real-time ground track for satellite COSMOS 507.

In-orbit conjunctions

There are no conjunctions computed for COSMOS 507, at the moment. Check back to stay up to date, as we update our databases every day.

Go to all conjunctions

Associated space launch

Military communications satellites

COSMOS 507 was lifted into orbit during the mission ‘Kosmos-3M | Strela-1M 25-32’, on board a Kosmos-3M space rocket.

The launch took place on July 20, 1972, 6:10 p.m. from 132/2.

For more information about the launch, click the button.

Launch to space Kosmos-3M | Strela-1M 25-32
Kosmos-3M | Strela-1M 25-32

Agency: N/A

Status: Launch Successful

Launch date: July 20, 1972, 6:10 p.m. UTC

Rocket: Kosmos-3M

Launch pad: 132/2

Location: Plesetsk Cosmodrome, Russian Federation

...

Latest news about this satellite

There are no fresh news available about this satellite. Check back as we update our databases every day.


Newsletter sign-up

Weekly statistics, charts and insights to help you stay on top of the space industry.